Defiance, OH

9:10 AM EDT on April 26, 2017 (GMT -0400)
Defiance Memorial

Weather History for KDFI - May, 2012

Change the Weather History Date:

Saturday, May 5, 2012

  Actual Average Record
Temperature  
Mean Temperature 66 °F -  
Max Temperature 72 °F 66 °F 90 °F (1949)
Min Temperature 59 °F 42 °F 31 °F (1971)
Growing Degree Days 16 (Base 50)    
Moisture  
Dew Point 56 °F    
Average Humidity 75    
Maximum Humidity 90    
Minimum Humidity 57    
Precipitation  
Precipitation 0.00 in - - ()
Sea Level Pressure  
Sea Level Pressure 30.01 in    
Wind  
Wind Speed 8 mph (ENE)    
Max Wind Speed 12 mph    
Max Gust Speed 18 mph    
Visibility 9 miles    
Events      
Averages and records for this station are not official NWS values.
T = Trace of Precipitation, MM = Missing Value Source: NWS Daily Summary

Daily Weather History Graph

Daily Weather History Graph

Search for Another Location

Airport or City:

Trip Planner

Search our weather history database for the weather conditions in past years. The results will help you decide how hot, cold, wet, or windy it might be!

Date:

Astronomy

May. 05, 2012 Rise Set
Actual Time 6:29 AM EDT 8:39 PM EDT
Civil Twilight 5:58 AM EDT 9:10 PM EDT
Nautical Twilight 5:21 AM EDT 9:48 PM EDT
Astronomical Twilight 4:40 AM EDT 10:29 PM EDT
Moon 8:31 PM EDT (5/5) 5:51 AM EDT (5/5)
Length of Visible Light 15h 11m
Length of Day
14h 10m
Full, 100% of the Moon is Illuminated
May 5
Full
May 5
Full
May 12
Last Quarter
May 20
New
May 28
First Quarter

Hourly Weather History & Observations

Time (EDT) Temp. Dew Point Humidity Pressure Visibility Wind Dir Wind Speed Gust Speed Precip Events Conditions
12:53 AM 63.0 °F 59.0 °F 87% 29.96 in 6.0 mi NE 6.9 mph - N/A   Mostly Cloudy
1:00 AM 62.6 °F 59.0 °F 88% 29.97 in 6.0 mi NE 8.1 mph 16.1 mph N/A   Scattered Clouds
1:53 AM 62.1 °F 59.0 °F 90% 29.96 in 8.0 mi NE 5.8 mph - N/A   Clear
2:21 AM 62.6 °F 59.0 °F 88% 29.97 in 10.0 mi NE 5.8 mph - N/A   Mostly Cloudy
2:53 AM 63.0 °F 57.9 °F 84% 29.95 in 10.0 mi NE 11.5 mph 18.4 mph N/A   Overcast
3:53 AM 61.0 °F 57.9 °F 90% 29.92 in 7.0 mi NE 6.9 mph - N/A   Overcast
4:53 AM 59.0 °F 55.9 °F 90% 29.94 in 10.0 mi East 6.9 mph - N/A   Mostly Cloudy
5:53 AM 59.0 °F 55.0 °F 87% 29.99 in 10.0 mi NNE 8.1 mph - N/A   Overcast
6:53 AM 59.0 °F 55.0 °F 87% 29.98 in 10.0 mi NE 4.6 mph - N/A   Overcast
7:48 AM 59.0 °F 55.4 °F 88% 30.01 in 7.0 mi ENE 5.8 mph - N/A   Overcast
7:53 AM 59.0 °F 55.0 °F 87% 30.00 in 6.0 mi ENE 6.9 mph - N/A   Overcast
8:16 AM 60.8 °F 55.4 °F 82% 30.01 in 7.0 mi ENE 6.9 mph - N/A   Overcast
8:53 AM 61.0 °F 55.9 °F 83% 30.01 in 9.0 mi NE 9.2 mph - N/A   Overcast
9:53 AM 63.0 °F 55.9 °F 78% 30.02 in 10.0 mi NE 8.1 mph - N/A   Overcast
10:53 AM 64.0 °F 55.9 °F 75% 30.01 in 10.0 mi NE 9.2 mph - N/A   Overcast
11:18 AM 66.2 °F 57.2 °F 73% 30.02 in 10.0 mi East 10.4 mph - N/A   Overcast
11:53 AM 68.0 °F 57.9 °F 70% 30.02 in 10.0 mi NNE 11.5 mph 16.1 mph N/A   Mostly Cloudy
12:53 PM 70.0 °F 57.9 °F 65% 30.01 in 10.0 mi ENE 9.2 mph 18.4 mph N/A   Overcast
1:53 PM 69.1 °F 55.9 °F 63% 30.02 in 10.0 mi ENE 9.2 mph 18.4 mph N/A   Overcast
2:53 PM 68.0 °F 55.0 °F 63% 30.02 in 10.0 mi ESE 10.4 mph - N/A   Overcast
3:14 PM 69.8 °F 55.4 °F 60% 30.02 in 10.0 mi East 11.5 mph - N/A   Overcast
3:53 PM 72.0 °F 55.9 °F 57% 30.01 in 10.0 mi NNE 9.2 mph - N/A   Scattered Clouds
4:53 PM 71.1 °F 55.9 °F 59% 30.03 in 10.0 mi East 10.4 mph - N/A   Partly Cloudy
5:53 PM 70.0 °F 55.0 °F 59% 30.01 in 10.0 mi ENE 10.4 mph - N/A   Clear
6:53 PM 69.1 °F 54.0 °F 58% 30.01 in 10.0 mi East 10.4 mph - N/A   Clear
7:53 PM 66.0 °F 53.1 °F 63% 30.04 in 10.0 mi East 5.8 mph - N/A   Scattered Clouds
8:53 PM 64.0 °F 52.0 °F 65% 30.05 in 10.0 mi ENE 3.5 mph - N/A   Clear
9:53 PM 62.1 °F 53.1 °F 72% 30.07 in 10.0 mi Calm Calm - N/A   Mostly Cloudy
10:53 PM 60.1 °F 53.1 °F 78% 30.08 in 10.0 mi East 4.6 mph - N/A   Scattered Clouds
11:53 PM 59.0 °F 48.0 °F 67% 30.07 in 10.0 mi East 5.8 mph - N/A   Clear